EW3302 Weather Reports


Display with metric or nautical units.
time (UTC)temp
F
wind
direction
speed
MPH
gust
MPH
rain 1hr
in
rain 24hr
in
rain mn
in
humidity
%
barometer
mb
20260509034516 34 0.0 1.0 0.00 0.00 0.00 70 1025.1
20260509033536 33 0.0 1.0 0.00 0.00 0.00 68 1025.1
20260509032536 33 203 1.0 2.0 0.00 0.00 0.00 67 1025.1
20260509031515 33 0.0 1.0 0.00 0.00 0.00 68 1025.1
20260509030515 33 0.0 2.0 0.00 0.00 0.00 68 1025.2
20260509025536 33 203 1.0 2.0 0.00 0.00 0.00 68 1025.2
20260509024516 34 180 1.0 2.0 0.00 0.00 0.00 67 1025.2
20260509023515 34 180 1.0 1.0 0.00 0.00 0.00 65 1025.2
20260509022517 34 0.0 2.0 0.00 0.00 0.00 63 1025.3
20260509021538 35 113 1.0 2.0 0.00 0.00 0.00 60 1025.3
20260509020517 36 0.0 1.0 0.00 0.00 0.00 57 1025.2
20260509015537 36 0.0 1.0 0.00 0.00 0.00 57 1025.3
20260509014515 37 0.0 1.0 0.00 0.00 0.00 55 1025.3
20260509013537 38 113 1.0 2.0 0.00 0.00 0.00 52 1025.4
20260509012517 39 0.0 1.0 0.00 0.00 0.00 49 1025.5
20260509011517 40 113 1.0 3.0 0.00 0.00 0.00 48 1025.5
20260509010517 40 113 2.0 4.0 0.00 0.00 0.00 46 1025.5
20260509005537 41 113 2.0 3.0 0.00 0.00 0.00 45 1025.5
20260509004517 41 135 2.0 4.0 0.00 0.00 0.00 45 1025.5
20260509003515 41 135 3.0 5.0 0.00 0.00 0.00 46 1025.6
20260509002517 41 135 3.0 5.0 0.00 0.00 0.00 45 1025.6
20260509001537 42 113 2.0 5.0 0.00 0.00 0.00 45 1025.6
20260509000537 43 113 2.0 4.0 0.00 0.00 0.00 44 1025.7
20260508235517 44 135 3.0 6.0 0.00 0.00 0.00 43 1025.6
20260508234517 44 135 4.0 7.0 0.00 0.00 0.00 42 1025.6
20260508233517 44 135 3.0 5.0 0.00 0.00 0.00 44 1025.6
20260508232517 44 135 3.0 5.0 0.00 0.00 0.00 45 1025.6
20260508231517 45 113 3.0 7.0 0.00 0.00 0.00 44 1025.7
20260508230517 45 113 3.0 6.0 0.00 0.00 0.00 43 1025.6
20260508225517 46 113 4.0 8.0 0.00 0.00 0.00 42 1025.6
20260508224517 46 135 3.0 5.0 0.00 0.00 0.00 42 1025.6
20260508223517 47 135 6.0 11.0 0.00 0.00 0.00 42 1025.6
20260508222517 46 135 5.0 10.0 0.00 0.00 0.00 43 1025.5
20260508221517 46 113 5.0 8.0 0.00 0.00 0.00 44 1025.5
20260508220517 46 113 4.0 7.0 0.00 0.00 0.00 44 1025.5
20260508215536 47 113 5.0 10.0 0.00 0.00 0.00 43 1025.4
20260508214517 48 113 4.0 7.0 0.00 0.00 0.00 43 1025.4
20260508213517 48 113 5.0 9.0 0.00 0.00 0.00 42 1025.3
20260508212537 49 113 4.0 8.0 0.00 0.00 0.00 41 1025.2
20260508211517 49 135 5.0 8.0 0.00 0.00 0.00 39 1025.1
20260508210517 50 135 5.0 10.0 0.00 0.00 0.00 38 1025.0
20260508205516 50 158 4.0 10.0 0.00 0.00 0.00 38 1024.9
20260508204516 50 180 4.0 8.0 0.00 0.00 0.00 38 1024.8
20260508203517 51 180 4.0 8.0 0.00 0.00 0.00 37 1024.7
20260508202517 51 158 4.0 8.0 0.00 0.00 0.00 37 1024.7
20260508201517 51 180 4.0 10.0 0.00 0.00 0.00 36 1024.6
20260508200516 52 158 5.0 10.0 0.00 0.00 0.00 36 1024.5
20260508195516 52 180 5.0 10.0 0.00 0.00 0.00 36 1024.3
20260508194537 53 158 6.0 11.0 0.00 0.00 0.00 35 1024.3
20260508193516 53 158 4.0 8.0 0.00 0.00 0.00 36 1024.2
20260508192516 54 135 6.0 9.0 0.00 0.00 0.00 35 1024.2
20260508191516 55 158 5.0 11.0 0.00 0.00 0.00 35 1024.1
20260508190516 55 158 6.0 10.0 0.00 0.00 0.00 34 1023.8
20260508185516 55 158 5.0 13.0 0.00 0.00 0.00 35 1023.7
20260508184517 56 135 6.0 10.0 0.00 0.00 0.00 35 1023.6
20260508183517 56 135 5.0 9.0 0.00 0.00 0.00 35 1023.5
20260508182516 57 135 5.0 10.0 0.00 0.00 0.00 34 1023.4
20260508181556 57 135 5.0 9.0 0.00 0.00 0.00 34 1023.3
20260508180517 57 180 4.0 8.0 0.00 0.00 0.00 35 1023.3
20260508175517 57 135 7.0 10.0 0.00 0.00 0.00 34 1023.1
20260508174516 58 158 5.0 13.0 0.00 0.00 0.00 34 1023.0
20260508173516 58 135 4.0 8.0 0.00 0.00 0.00 35 1022.9
20260508172516 59 135 7.0 10.0 0.00 0.00 0.00 33 1022.8
20260508171537 59 135 7.0 14.0 0.00 0.00 0.00 33 1022.8
20260508170517 59 135 8.0 11.0 0.00 0.00 0.00 33 1022.7
20260508165516 59 135 7.0 13.0 0.00 0.00 0.00 33 1022.7
20260508164517 60 135 7.0 11.0 0.00 0.00 0.00 33 1022.7
20260508163516 60 135 7.0 14.0 0.00 0.00 0.00 34 1022.6
20260508162516 61 135 6.0 11.0 0.00 0.00 0.00 31 1022.5
20260508161516 61 180 6.0 11.0 0.00 0.00 0.00 31 1022.4
20260508160536 61 158 5.0 10.0 0.00 0.00 0.00 30 1022.4
20260508155517 61 158 6.0 11.0 0.00 0.00 0.00 31 1022.4
20260508154516 61 203 6.0 10.0 0.00 0.00 0.00 32 1022.5
20260508153516 61 180 6.0 10.0 0.00 0.00 0.00 31 1022.5
20260508152536 61 135 7.0 12.0 0.00 0.00 0.00 31 1022.4
20260508151516 61 135 7.0 10.0 0.00 0.00 0.00 31 1022.5
20260508150516 62 180 7.0 13.0 0.00 0.00 0.00 32 1022.4
20260508145516 62 158 7.0 14.0 0.00 0.00 0.00 29 1022.4
20260508144516 62 180 7.0 14.0 0.00 0.00 0.00 32 1022.6
20260508143517 62 158 9.0 18.0 0.00 0.00 0.00 30 1022.6
20260508142516 62 180 7.0 12.0 0.00 0.00 0.00 29 1022.7
20260508141516 63 203 6.0 10.0 0.00 0.00 0.00 29 1022.7
20260508140516 63 180 7.0 14.0 0.00 0.00 0.00 31 1022.7
20260508135516 63 135 9.0 16.0 0.00 0.00 0.00 29 1022.7
20260508134516 62 180 7.0 16.0 0.00 0.00 0.00 30 1022.8
20260508133516 62 180 7.0 11.0 0.00 0.00 0.00 30 1022.8
20260508132516 62 180 7.0 15.0 0.00 0.00 0.00 30 1022.9
20260508131536 62 180 7.0 16.0 0.00 0.00 0.00 29 1022.9
20260508130516 63 158 7.0 13.0 0.00 0.00 0.00 31 1023.0
20260508125536 63 180 9.0 16.0 0.00 0.00 0.00 29 1023.0
20260508124537 64 135 8.0 15.0 0.00 0.00 0.00 30 1023.0
20260508123516 63 180 6.0 10.0 0.00 0.00 0.00 30 1023.1
20260508122516 62 135 8.0 13.0 0.00 0.00 0.00 34 1023.1
20260508121516 61 0 7.0 14.0 0.00 0.00 0.00 31 1023.2
20260508120536 62 113 5.0 14.0 0.00 0.00 0.00 32 1023.2
20260508115516 62 180 9.0 17.0 0.00 0.00 0.00 31 1023.4
20260508114536 63 180 7.0 17.0 0.00 0.00 0.00 32 1023.4
20260508113516 62 135 7.0 13.0 0.00 0.00 0.00 32 1023.4
20260508112517 62 180 8.0 17.0 0.00 0.00 0.00 31 1023.5
20260508111516 62 180 10.0 19.0 0.00 0.00 0.00 31 1023.5
20260508110516 61 203 7.0 12.0 0.00 0.00 0.00 33 1023.5
20260508105536 61 203 9.0 20.0 0.00 0.00 0.00 31 1023.5
20260508104516 61 135 8.0 14.0 0.00 0.00 0.00 33 1023.5
20260508103516 61 158 7.0 15.0 0.00 0.00 0.00 34 1023.6
20260508102516 61 135 8.0 17.0 0.00 0.00 0.00 32 1023.6
20260508101516 61 203 7.0 13.0 0.00 0.00 0.00 34 1023.5
20260508100516 60 135 8.0 14.0 0.00 0.00 0.00 35 1023.6
20260508095516 59 135 8.0 15.0 0.00 0.00 0.00 34 1023.7
20260508094516 59 135 6.0 14.0 0.00 0.00 0.00 37 1023.7
20260508093516 59 113 8.0 13.0 0.00 0.00 0.00 38 1023.7
20260508092516 59 180 6.0 11.0 0.00 0.00 0.00 39 1024.0
20260508091516 58 135 8.0 18.0 0.00 0.00 0.00 39 1024.0
20260508090516 58 135 6.0 11.0 0.00 0.00 0.00 38 1024.0
20260508085516 58 180 5.0 11.0 0.00 0.00 0.00 39 1024.0
20260508084516 57 180 6.0 15.0 0.00 0.00 0.00 40 1024.1
20260508083516 56 180 6.0 12.0 0.00 0.00 0.00 40 1024.1
20260508082516 55 135 7.0 13.0 0.00 0.00 0.00 41 1024.2
20260508081516 54 135 5.0 10.0 0.00 0.00 0.00 43 1024.1
20260508080516 53 135 6.0 13.0 0.00 0.00 0.00 44 1024.1
20260508075516 52 135 5.0 9.0 0.00 0.00 0.00 45 1024.1
20260508074516 51 135 2.0 4.0 0.00 0.00 0.00 48 1024.1
20260508073516 50 113 4.0 7.0 0.00 0.00 0.00 50 1024.1
20260508072516 50 113 4.0 6.0 0.00 0.00 0.00 48 1024.1
20260508071516 49 113 4.0 10.0 0.00 0.00 0.00 47 1024.1
20260508070516 48 90 2.0 7.0 0.00 0.00 0.00 50 1024.0
20260508065536 47 113 4.0 8.0 0.00 0.00 0.00 53 1024.0
20260508064536 46 158 2.0 4.0 0.00 0.00 0.00 51 1023.9
20260508063516 46 23 2.0 6.0 0.00 0.00 0.00 53 1023.9
20260508062516 46 68 1.0 4.0 0.00 0.00 0.00 55 1023.8
20260508061516 45 90 2.0 4.0 0.00 0.00 0.00 58 1023.7
20260508060516 43 90 3.0 7.0 0.00 0.00 0.00 62 1023.6
20260508055516 42 90 2.0 5.0 0.00 0.00 0.00 63 1023.6
20260508054516 41 90 3.0 7.0 0.00 0.00 0.00 66 1023.6
20260508053516 40 90 2.0 5.0 0.00 0.00 0.00 67 1023.6
20260508052556 39 90 2.0 6.0 0.00 0.00 0.00 69 1023.6
20260508051516 39 90 2.0 5.0 0.00 0.00 0.00 70 1023.5
20260508050516 37 113 3.0 5.0 0.00 0.00 0.00 74 1023.3
20260508045516 36 90 2.0 5.0 0.00 0.00 0.00 77 1023.3
20260508044516 35 90 2.0 3.0 0.00 0.00 0.00 80 1023.2
20260508043516 34 90 1.0 2.0 0.00 0.00 0.00 81 1023.1
20260508042536 34 0.0 1.0 0.00 0.00 0.00 81 1023.1
20260508041516 33 0.0 1.0 0.00 0.00 0.00 84 1023.1
20260508040516 31 0.0 0.0 0.00 0.00 0.00 89 1022.9
20260508035516 29 0.0 0.0 0.00 0.00 0.00 88 1022.8